| time (UTC) | temp F | wind direction | speed MPH | gust MPH | rain 1hr in | rain 24hr in | rain mn in | humidity % | barometer mb |
| 20260901201044 | 88 | 327 | 3.0 | 8.0 | 0.00 | 0.00 | 0.00 | 65 | 1013.4 |
| 20260901200541 | 88 | 226 | 4.0 | 7.0 | 0.00 | 0.00 | 0.00 | 66 | 1013.6 |
| 20260901200040 | 88 | 234 | 0.0 | 7.0 | 0.00 | 0.00 | 0.00 | 65 | 1013.7 |
| 20260901195539 | 88 | 203 | 2.0 | 9.0 | 0.00 | 0.00 | 0.00 | 66 | 1013.9 |
| 20260901195039 | 88 | 292 | 3.0 | 9.0 | 0.00 | 0.00 | 0.00 | 66 | 1014.0 |
| 20260901194540 | 88 | 246 | 0.0 | 9.0 | 0.00 | 0.00 | 0.00 | 64 | 1014.0 |
| 20260901194042 | 89 | 319 | 5.0 | 9.0 | 0.00 | 0.00 | 0.00 | 64 | 1014.0 |
| 20260901193537 | 88 | 279 | 4.0 | 8.0 | 0.00 | 0.00 | 0.00 | 65 | 1014.1 |
| 20260901193041 | 88 | 248 | 4.0 | 9.0 | 0.00 | 0.00 | 0.00 | 64 | 1014.1 |
| 20260901192536 | 89 | 257 | 4.0 | 9.0 | 0.00 | 0.00 | 0.00 | 64 | 1014.0 |
| 20260901192035 | 88 | 272 | 3.0 | 7.0 | 0.00 | 0.00 | 0.00 | 65 | 1014.0 |
| 20260901191538 | 88 | 244 | 4.0 | 8.0 | 0.00 | 0.00 | 0.00 | 66 | 1014.0 |
| 20260901191035 | 87 | 255 | 4.0 | 8.0 | 0.00 | 0.00 | 0.00 | 67 | 1014.0 |
| 20260901190533 | 87 | 209 | 3.0 | 7.0 | 0.00 | 0.00 | 0.00 | 66 | 1014.1 |
| 20260901190030 | 87 | 241 | 3.0 | 6.0 | 0.00 | 0.00 | 0.00 | 67 | 1014.1 |
| 20260901185529 | 86 | 235 | 3.0 | 6.0 | 0.00 | 0.00 | 0.00 | 69 | 1014.2 |
| 20260901185028 | 86 | 243 | 3.0 | 8.0 | 0.00 | 0.00 | 0.00 | 70 | 1014.2 |
| 20260901184528 | 86 | 210 | 3.0 | 8.0 | 0.00 | 0.00 | 0.00 | 70 | 1014.3 |
| 20260901184028 | 86 | 218 | 0.0 | 7.0 | 0.00 | 0.00 | 0.00 | 71 | 1014.3 |
| 20260901183527 | 85 | 246 | 0.0 | 7.0 | 0.00 | 0.00 | 0.00 | 71 | 1014.3 |
| 20260901183027 | 85 | 229 | 0.0 | 4.0 | 0.00 | 0.00 | 0.00 | 71 | 1014.3 |
| 20260901182526 | 85 | 210 | 0.0 | 3.0 | 0.00 | 0.00 | 0.00 | 72 | 1014.3 |
| 20260901182029 | 85 | 213 | 0.0 | 6.0 | 0.00 | 0.00 | 0.00 | 73 | 1014.3 |
| 20260901181527 | 85 | 227 | 1.0 | 6.0 | 0.00 | 0.00 | 0.00 | 73 | 1014.3 |
| 20260901181024 | 85 | 257 | 3.0 | 7.0 | 0.00 | 0.00 | 0.00 | 74 | 1014.5 |
| 20260901180525 | 84 | 231 | 2.0 | 7.0 | 0.00 | 0.00 | 0.00 | 74 | 1014.5 |
| 20260901180030 | 84 | 229 | 3.0 | 7.0 | 0.00 | 0.00 | 0.00 | 74 | 1014.5 |
| 20260901175523 | 84 | 227 | 3.0 | 5.0 | 0.00 | 0.00 | 0.00 | 75 | 1014.6 |
| 20260901175022 | 84 | 252 | 2.0 | 5.0 | 0.00 | 0.00 | 0.00 | 74 | 1014.7 |
| 20260901174522 | 84 | 270 | 2.0 | 5.0 | 0.00 | 0.00 | 0.00 | 75 | 1014.7 |
| 20260901174024 | 84 | 250 | 2.0 | 8.0 | 0.00 | 0.00 | 0.00 | 74 | 1014.8 |
| 20260901173522 | 84 | 221 | 3.0 | 8.0 | 0.00 | 0.00 | 0.00 | 73 | 1014.8 |
| 20260901173020 | 84 | 257 | 3.0 | 10.0 | 0.00 | 0.00 | 0.00 | 72 | 1014.8 |
| 20260901172620 | 85 | 257 | 4.0 | 10.0 | 0.00 | 0.00 | 0.00 | 71 | 1014.8 |
| 20260901172020 | 86 | 77 | 3.0 | 10.0 | 0.00 | 0.00 | 0.00 | 70 | 1014.8 |
| 20260901171519 | 86 | 221 | 4.0 | 11.0 | 0.00 | 0.00 | 0.00 | 69 | 1014.8 |
| 20260901171018 | 86 | 220 | 4.0 | 11.0 | 0.00 | 0.00 | 0.00 | 71 | 1014.8 |
| 20260901170519 | 86 | 215 | 4.0 | 12.0 | 0.00 | 0.00 | 0.00 | 70 | 1014.9 |
| 20260901170016 | 86 | 218 | 6.0 | 12.0 | 0.00 | 0.00 | 0.00 | 71 | 1015.0 |
| 20260901165518 | 86 | 273 | 4.0 | 9.0 | 0.00 | 0.00 | 0.00 | 70 | 1015.1 |
| 20260901165017 | 86 | 271 | 4.0 | 8.0 | 0.00 | 0.00 | 0.00 | 71 | 1015.1 |
| 20260901164515 | 86 | 223 | 3.0 | 10.0 | 0.00 | 0.00 | 0.00 | 72 | 1015.0 |
| 20260901164014 | 85 | 211 | 4.0 | 10.0 | 0.00 | 0.00 | 0.00 | 73 | 1015.0 |
| 20260901163513 | 85 | 216 | 5.0 | 10.0 | 0.00 | 0.00 | 0.00 | 72 | 1015.1 |
| 20260901163024 | 85 | 267 | 5.0 | 10.0 | 0.00 | 0.00 | 0.00 | 72 | 1015.1 |
| 20260901162511 | 85 | 225 | 4.0 | 10.0 | 0.00 | 0.00 | 0.00 | 73 | 1015.2 |
| 20260901162011 | 84 | 327 | 4.0 | 10.0 | 0.00 | 0.00 | 0.00 | 75 | 1015.4 |
| 20260901161509 | 84 | 282 | 4.0 | 10.0 | 0.00 | 0.00 | 0.00 | 76 | 1015.4 |
| 20260901161008 | 83 | 203 | 3.0 | 10.0 | 0.00 | 0.00 | 0.00 | 77 | 1015.4 |
| 20260901160506 | 83 | 250 | 3.0 | 8.0 | 0.00 | 0.00 | 0.00 | 78 | 1015.4 |
| 20260901160011 | 83 | 222 | 2.0 | 8.0 | 0.00 | 0.00 | 0.00 | 79 | 1015.5 |
| 20260901155506 | 83 | 343 | 2.0 | 8.0 | 0.00 | 0.00 | 0.00 | 79 | 1015.5 |
| 20260901155007 | 82 | 289 | 4.0 | 8.0 | 0.00 | 0.00 | 0.00 | 81 | 1015.4 |
| 20260901154506 | 81 | 225 | 2.0 | 8.0 | 0.00 | 0.00 | 0.00 | 82 | 1015.5 |
| 20260901154006 | 81 | 267 | 3.0 | 8.0 | 0.00 | 0.00 | 0.00 | 81 | 1015.5 |
| 20260901153506 | 81 | 293 | 4.0 | 9.0 | 0.00 | 0.00 | 0.00 | 81 | 1015.6 |
| 20260901153010 | 81 | 219 | 4.0 | 10.0 | 0.00 | 0.00 | 0.00 | 81 | 1015.5 |
| 20260901152509 | 81 | 240 | 2.0 | 10.0 | 0.00 | 0.00 | 0.00 | 81 | 1015.7 |
| 20260901152007 | 82 | 238 | 3.0 | 10.0 | 0.00 | 0.00 | 0.00 | 80 | 1015.8 |
| 20260901151508 | 82 | 236 | 3.0 | 10.0 | 0.00 | 0.00 | 0.00 | 79 | 1015.7 |
| 20260901151005 | 83 | 300 | 5.0 | 10.0 | 0.00 | 0.00 | 0.00 | 77 | 1015.6 |
| 20260901150503 | 83 | 218 | 3.0 | 11.0 | 0.00 | 0.00 | 0.00 | 77 | 1015.6 |
| 20260901150003 | 83 | 231 | 4.0 | 11.0 | 0.00 | 0.00 | 0.00 | 76 | 1015.6 |
| 20260901145500 | 83 | 239 | 4.0 | 10.0 | 0.00 | 0.00 | 0.00 | 78 | 1015.5 |
| 20260901145100 | 83 | 240 | 5.0 | 10.0 | 0.00 | 0.00 | 0.00 | 80 | 1015.5 |
| 20260901145001 | 82 | 237 | 5.0 | 10.0 | 0.00 | 0.00 | 0.00 | 79 | 1015.5 |
| 20260901144602 | 82 | 211 | 4.0 | 8.0 | 0.00 | 0.00 | 0.00 | 81 | 1015.4 |
| 20260901144101 | 82 | 246 | 3.0 | 9.0 | 0.00 | 0.00 | 0.00 | 80 | 1015.5 |
| 20260901143559 | 82 | 271 | 5.0 | 9.0 | 0.00 | 0.00 | 0.00 | 80 | 1015.6 |
| 20260901143059 | 83 | 223 | 4.0 | 9.0 | 0.00 | 0.00 | 0.00 | 79 | 1015.5 |
| 20260901142556 | 82 | 261 | 3.0 | 8.0 | 0.00 | 0.00 | 0.00 | 80 | 1015.6 |
| 20260901142055 | 82 | 261 | 3.0 | 9.0 | 0.00 | 0.00 | 0.00 | 81 | 1015.7 |
| 20260901141555 | 82 | 227 | 3.0 | 9.0 | 0.00 | 0.00 | 0.00 | 82 | 1015.6 |
| 20260901141053 | 81 | 309 | 4.0 | 9.0 | 0.00 | 0.00 | 0.00 | 82 | 1015.6 |
| 20260901140551 | 81 | 262 | 3.0 | 9.0 | 0.00 | 0.00 | 0.00 | 83 | 1015.6 |
| 20260901140059 | 81 | 219 | 4.0 | 9.0 | 0.00 | 0.00 | 0.00 | 84 | 1015.7 |
| 20260901135550 | 80 | 292 | 4.0 | 9.0 | 0.00 | 0.00 | 0.00 | 85 | 1015.8 |
| 20260901135049 | 80 | 225 | 3.0 | 8.0 | 0.00 | 0.00 | 0.00 | 85 | 1015.8 |
| 20260901134559 | 80 | 222 | 4.0 | 10.0 | 0.00 | 0.00 | 0.00 | 85 | 1015.8 |
| 20260901134046 | 80 | 232 | 4.0 | 10.0 | 0.00 | 0.00 | 0.00 | 86 | 1015.9 |
| 20260901133546 | 80 | 238 | 4.0 | 10.0 | 0.00 | 0.00 | 0.00 | 86 | 1016.0 |
| 20260901133100 | 80 | 287 | 5.0 | 10.0 | 0.00 | 0.00 | 0.00 | 87 | 1016.1 |
| 20260901132548 | 79 | 264 | 4.0 | 7.0 | 0.00 | 0.00 | 0.00 | 87 | 1016.0 |
| 20260901132044 | 79 | 247 | 3.0 | 8.0 | 0.00 | 0.00 | 0.00 | 88 | 1016.0 |
| 20260901131546 | 79 | 213 | 3.0 | 9.0 | 0.00 | 0.00 | 0.00 | 88 | 1016.1 |
| 20260901131046 | 79 | 225 | 3.0 | 9.0 | 0.00 | 0.00 | 0.00 | 88 | 1016.1 |
| 20260901130542 | 79 | 254 | 3.0 | 9.0 | 0.00 | 0.00 | 0.00 | 89 | 1016.2 |
| 20260901130041 | 79 | 213 | 4.0 | 9.0 | 0.00 | 0.00 | 0.00 | 89 | 1016.1 |
| 20260901125540 | 79 | 252 | 3.0 | 9.0 | 0.00 | 0.00 | 0.00 | 90 | 1016.3 |
| 20260901125039 | 78 | 241 | 2.0 | 7.0 | 0.00 | 0.00 | 0.00 | 90 | 1016.3 |
| 20260901124539 | 78 | 213 | 4.0 | 7.0 | 0.00 | 0.00 | 0.00 | 90 | 1016.3 |
| 20260901124038 | 78 | 236 | 4.0 | 8.0 | 0.00 | 0.00 | 0.00 | 91 | 1016.3 |
| 20260901123538 | 78 | 259 | 3.0 | 8.0 | 0.00 | 0.00 | 0.00 | 91 | 1016.3 |
| 20260901123040 | 78 | 218 | 4.0 | 8.0 | 0.00 | 0.00 | 0.00 | 91 | 1016.3 |
| 20260901122536 | 78 | 271 | 4.0 | 8.0 | 0.00 | 0.00 | 0.00 | 91 | 1016.3 |
| 20260901122036 | 78 | 220 | 1.0 | 7.0 | 0.00 | 0.00 | 0.00 | 92 | 1016.3 |
| 20260901121545 | 78 | 232 | 2.0 | 7.0 | 0.00 | 0.00 | 0.00 | 92 | 1016.4 |
| 20260901121036 | 78 | 239 | 4.0 | 7.0 | 0.00 | 0.00 | 0.00 | 92 | 1016.4 |
| 20260901120534 | 78 | 244 | 3.0 | 8.0 | 0.00 | 0.00 | 0.00 | 93 | 1016.3 |
| 20260901120037 | 77 | 232 | 3.0 | 6.0 | 0.00 | 0.00 | 0.00 | 93 | 1016.3 |
| 20260901115537 | 77 | 226 | 2.0 | 7.0 | 0.00 | 0.00 | 0.00 | 94 | 1016.3 |
| 20260901115034 | 77 | 203 | 2.0 | 7.0 | 0.00 | 0.00 | 0.00 | 94 | 1016.3 |
| 20260901114532 | 77 | 227 | 2.0 | 7.0 | 0.00 | 0.00 | 0.00 | 94 | 1016.3 |
| 20260901114031 | 77 | 240 | 2.0 | 5.0 | 0.00 | 0.00 | 0.00 | 94 | 1016.3 |
| 20260901113531 | 76 | 220 | 1.0 | 2.0 | 0.00 | 0.00 | 0.00 | 94 | 1016.4 |
| 20260901113030 | 76 | 223 | 0.0 | 3.0 | 0.00 | 0.00 | 0.00 | 95 | 1016.3 |
| 20260901112529 | 76 | 219 | 2.0 | 6.0 | 0.00 | 0.00 | 0.00 | 95 | 1016.3 |
| 20260901112029 | 76 | 283 | 1.0 | 6.0 | 0.00 | 0.00 | 0.00 | 95 | 1016.5 |
| 20260901111531 | 76 | 214 | 1.0 | 4.0 | 0.00 | 0.00 | 0.00 | 95 | 1016.4 |
| 20260901111028 | 75 | 273 | 0.0 | 4.0 | 0.00 | 0.00 | 0.00 | 95 | 1016.4 |
| 20260901110527 | 75 | 248 | 1.0 | 4.0 | 0.00 | 0.00 | 0.00 | 95 | 1016.3 |
| 20260901110026 | 75 | 265 | 0.0 | 2.0 | 0.00 | 0.00 | 0.00 | 95 | 1016.3 |
| 20260901105526 | 75 | 255 | 0.0 | 2.0 | 0.00 | 0.00 | 0.00 | 95 | 1016.1 |
| 20260901105028 | 74 | 246 | 0.0 | 1.0 | 0.00 | 0.00 | 0.00 | 95 | 1016.1 |
| 20260901104534 | 74 | 262 | 0.0 | 1.0 | 0.00 | 0.00 | 0.00 | 94 | 1016.0 |
| 20260901104023 | 74 | 262 | 0.0 | 2.0 | 0.00 | 0.00 | 0.00 | 94 | 1015.9 |
| 20260901103523 | 74 | 262 | 0.0 | 3.0 | 0.00 | 0.00 | 0.00 | 94 | 1015.7 |
| 20260901103029 | 74 | 210 | 0.0 | 3.0 | 0.00 | 0.00 | 0.00 | 95 | 1015.7 |
| 20260901102522 | 74 | 200 | 0.0 | 3.0 | 0.00 | 0.00 | 0.00 | 94 | 1015.7 |
| 20260901102022 | 74 | 207 | 1.0 | 4.0 | 0.00 | 0.00 | 0.00 | 94 | 1015.7 |
| 20260901101521 | 74 | 215 | 1.0 | 4.0 | 0.00 | 0.00 | 0.00 | 94 | 1015.7 |
| 20260901101020 | 74 | 210 | 0.0 | 2.0 | 0.00 | 0.00 | 0.00 | 94 | 1015.7 |
| 20260901100520 | 74 | 210 | 0.0 | 2.0 | 0.00 | 0.00 | 0.00 | 94 | 1015.8 |
| 20260901100019 | 74 | 212 | 1.0 | 2.0 | 0.00 | 0.00 | 0.00 | 94 | 1015.9 |
| 20260901095517 | 74 | 229 | 1.0 | 2.0 | 0.00 | 0.00 | 0.00 | 94 | 1016.0 |
| 20260901095017 | 73 | 209 | 0.0 | 1.0 | 0.00 | 0.00 | 0.00 | 94 | 1016.0 |
| 20260901094521 | 73 | 209 | 0.0 | 2.0 | 0.00 | 0.00 | 0.00 | 94 | 1016.0 |
| 20260901094017 | 73 | 209 | 0.0 | 2.0 | 0.00 | 0.00 | 0.00 | 94 | 1016.0 |
| 20260901093516 | 73 | 209 | 0.0 | 3.0 | 0.00 | 0.00 | 0.00 | 94 | 1016.0 |
| 20260901093018 | 73 | 207 | 0.0 | 3.0 | 0.00 | 0.00 | 0.00 | 94 | 1016.0 |
| 20260901092515 | 73 | 200 | 0.0 | 3.0 | 0.00 | 0.00 | 0.00 | 94 | 1016.1 |
| 20260901092015 | 73 | 244 | 0.0 | 3.0 | 0.00 | 0.00 | 0.00 | 94 | 1016.1 |
| 20260901091515 | 73 | 221 | 0.0 | 3.0 | 0.00 | 0.00 | 0.00 | 94 | 1016.0 |
| 20260901091015 | 73 | 223 | 1.0 | 3.0 | 0.00 | 0.00 | 0.00 | 95 | 1016.0 |
| 20260901090512 | 73 | 245 | 0.0 | 3.0 | 0.00 | 0.00 | 0.00 | 94 | 1016.1 |
| 20260901090011 | 73 | 240 | 1.0 | 3.0 | 0.00 | 0.00 | 0.00 | 94 | 1016.0 |
| 20260901085509 | 73 | 223 | 1.0 | 2.0 | 0.00 | 0.00 | 0.00 | 94 | 1016.0 |
| 20260901085009 | 73 | 205 | 0.0 | 2.0 | 0.00 | 0.00 | 0.00 | 95 | 1016.1 |
| 20260901084508 | 72 | 205 | 1.0 | 2.0 | 0.00 | 0.00 | 0.00 | 95 | 1016.1 |
| 20260901084008 | 72 | 196 | 0.0 | 2.0 | 0.00 | 0.00 | 0.00 | 94 | 1016.1 |
| 20260901083507 | 72 | 196 | 0.0 | 1.0 | 0.00 | 0.00 | 0.00 | 94 | 1016.2 |
| 20260901083004 | 72 | 196 | 0.0 | 1.0 | 0.00 | 0.00 | 0.00 | 94 | 1016.2 |
| 20260901082504 | 72 | 196 | 0.0 | 1.0 | 0.00 | 0.00 | 0.00 | 94 | 1016.2 |
| 20260901082002 | 72 | 196 | 0.0 | 0.0 | 0.00 | 0.00 | 0.00 | 94 | 1016.2 |
| 20260901081601 | 72 | 196 | 0.0 | 1.0 | 0.00 | 0.00 | 0.00 | 94 | 1016.2 |
| 20260901081058 | 72 | 196 | 0.0 | 1.0 | 0.00 | 0.00 | 0.00 | 94 | 1016.2 |
| 20260901080603 | 72 | 196 | 0.0 | 2.0 | 0.00 | 0.00 | 0.00 | 94 | 1016.2 |
| 20260901080110 | 72 | 196 | 0.0 | 2.0 | 0.00 | 0.00 | 0.00 | 94 | 1016.2 |
| 20260901075556 | 72 | 196 | 0.0 | 1.0 | 0.00 | 0.03 | 0.00 | 94 | 1016.2 |
| 20260901075056 | 72 | 196 | 0.0 | 1.0 | 0.00 | 0.03 | 0.00 | 94 | 1016.3 |
| 20260901074554 | 72 | 196 | 0.0 | 1.0 | 0.00 | 0.03 | 0.00 | 94 | 1016.3 |
| 20260901074056 | 72 | 196 | 0.0 | 1.0 | 0.00 | 0.03 | 0.00 | 94 | 1016.4 |
| 20260901073554 | 72 | 196 | 0.0 | 1.0 | 0.00 | 0.03 | 0.00 | 94 | 1016.4 |
| 20260901073054 | 71 | 196 | 0.0 | 1.0 | 0.00 | 0.03 | 0.00 | 94 | 1016.5 |
| 20260901072554 | 71 | 196 | 0.0 | 0.0 | 0.00 | 0.03 | 0.00 | 94 | 1016.6 |
| 20260901072054 | 71 | 196 | 0.0 | 0.0 | 0.00 | 0.03 | 0.00 | 94 | 1016.6 |
| 20260901071602 | 71 | 196 | 0.0 | 0.0 | 0.00 | 0.03 | 0.00 | 94 | 1016.6 |
| 20260901071055 | 71 | 196 | 0.0 | 1.0 | 0.00 | 0.03 | 0.00 | 94 | 1016.6 |
| 20260901070553 | 71 | 196 | 0.0 | 1.0 | 0.00 | 0.03 | 0.00 | 94 | 1016.5 |
| 20260901070100 | 71 | 196 | 0.0 | 0.0 | 0.00 | 0.03 | 0.00 | 94 | 1016.5 |
| 20260901065556 | 71 | 196 | 0.0 | 0.0 | 0.00 | 0.06 | 0.00 | 93 | 1016.4 |
| 20260901065053 | 71 | 196 | 0.0 | 0.0 | 0.00 | 0.06 | 0.00 | 93 | 1016.4 |
| 20260901064607 | 71 | 196 | 0.0 | 1.0 | 0.00 | 0.06 | 0.00 | 93 | 1016.5 |
| 20260901064052 | 71 | 196 | 0.0 | 1.0 | 0.00 | 0.06 | 0.00 | 93 | 1016.4 |
| 20260901063549 | 71 | 196 | 0.0 | 1.0 | 0.00 | 0.06 | 0.00 | 93 | 1016.6 |
| 20260901063109 | 71 | 196 | 0.0 | 1.0 | 0.00 | 0.06 | 0.00 | 93 | 1016.6 |
| 20260901062548 | 71 | 196 | 0.0 | 1.0 | 0.00 | 0.06 | 0.00 | 93 | 1016.7 |
| 20260901062047 | 71 | 196 | 0.0 | 1.0 | 0.00 | 0.06 | 0.00 | 93 | 1016.9 |
| 20260901061549 | 72 | 196 | 0.0 | 1.0 | 0.00 | 0.06 | 0.00 | 93 | 1017.0 |
| 20260901061047 | 72 | 196 | 0.0 | 1.0 | 0.00 | 0.06 | 0.00 | 93 | 1016.9 |
| 20260901060549 | 72 | 196 | 0.0 | 2.0 | 0.00 | 0.06 | 0.00 | 94 | 1016.9 |
| 20260901060046 | 72 | 196 | 0.0 | 2.0 | 0.00 | 0.06 | 0.00 | 94 | 1016.9 |
| 20260901055545 | 72 | 195 | 0.0 | 1.0 | 0.00 | 0.06 | 0.00 | 93 | 1016.9 |
| 20260901055044 | 72 | 195 | 0.0 | 1.0 | 0.00 | 0.06 | 0.00 | 93 | 1017.0 |
| 20260901054544 | 71 | 197 | 0.0 | 1.0 | 0.00 | 0.06 | 0.00 | 93 | 1017.2 |
| 20260901054042 | 72 | 197 | 0.0 | 1.0 | 0.00 | 0.06 | 0.00 | 93 | 1017.3 |
| 20260901053545 | 72 | 197 | 0.0 | 1.0 | 0.00 | 0.06 | 0.00 | 93 | 1017.4 |
| 20260901053041 | 72 | 197 | 0.0 | 0.0 | 0.00 | 0.06 | 0.00 | 93 | 1017.5 |
| 20260901052541 | 72 | 197 | 0.0 | 0.0 | 0.00 | 0.06 | 0.00 | 93 | 1017.5 |
| 20260901052039 | 72 | 197 | 0.0 | 0.0 | 0.00 | 0.06 | 0.00 | 93 | 1017.4 |
| 20260901051539 | 72 | 197 | 0.0 | 0.0 | 0.00 | 0.06 | 0.00 | 93 | 1017.5 |
| 20260901051037 | 72 | 197 | 0.0 | 1.0 | 0.00 | 0.06 | 0.00 | 93 | 1017.5 |
| 20260901050536 | 72 | 197 | 0.0 | 2.0 | 0.00 | 0.06 | 0.00 | 93 | 1017.5 |
| 20260901050035 | 72 | 197 | 0.0 | 2.0 | 0.00 | 0.06 | 0.00 | 93 | 1017.4 |
| 20260901045532 | 72 | 78 | 0.0 | 1.0 | 0.00 | 0.06 | 0.00 | 93 | 1017.5 |
| 20260901045031 | 72 | 78 | 0.0 | 1.0 | 0.00 | 0.06 | 0.00 | 93 | 1017.6 |
| 20260901044530 | 72 | 78 | 0.0 | 0.0 | 0.00 | 0.06 | 0.00 | 93 | 1017.6 |
| 20260901044031 | 72 | 78 | 0.0 | 0.0 | 0.00 | 0.06 | 0.00 | 93 | 1017.6 |
| 20260901043527 | 72 | 78 | 0.0 | 1.0 | 0.00 | 0.06 | 0.00 | 93 | 1017.6 |
| 20260901043026 | 72 | 78 | 0.0 | 1.0 | 0.00 | 0.06 | 0.00 | 93 | 1017.5 |
| 20260901042525 | 72 | 78 | 0.0 | 1.0 | 0.00 | 0.06 | 0.00 | 93 | 1017.5 |
| 20260901042025 | 72 | 78 | 0.0 | 0.0 | 0.00 | 0.06 | 0.00 | 93 | 1017.7 |
| 20260901041524 | 72 | 78 | 0.0 | 0.0 | 0.00 | 0.06 | 0.00 | 93 | 1017.7 |
| 20260901041024 | 72 | 78 | 0.0 | 0.0 | 0.00 | 0.06 | 0.00 | 93 | 1017.6 |
| 20260901040524 | 72 | 78 | 0.0 | 0.0 | 0.00 | 0.06 | 0.00 | 93 | 1017.6 |
| 20260901040022 | 72 | 78 | 0.0 | 0.0 | 0.00 | 0.06 | 0.00 | 93 | 1017.5 |
| 20260901035523 | 72 | 78 | 0.0 | 0.0 | 0.00 | 0.06 | 0.06 | 92 | 1017.4 |
| 20260901035022 | 72 | 78 | 0.0 | 0.0 | 0.00 | 0.06 | 0.06 | 93 | 1017.4 |
| 20260901034523 | 72 | 78 | 0.0 | 0.0 | 0.00 | 0.06 | 0.06 | 92 | 1017.4 |
| 20260901034021 | 72 | 78 | 0.0 | 0.0 | 0.00 | 0.06 | 0.06 | 92 | 1017.3 |
| 20260901033521 | 72 | 78 | 0.0 | 0.0 | 0.00 | 0.06 | 0.06 | 92 | 1017.3 |
| 20260901033033 | 72 | 78 | 0.0 | 0.0 | 0.00 | 0.06 | 0.06 | 92 | 1017.3 |
| 20260901032520 | 72 | 78 | 0.0 | 0.0 | 0.00 | 0.06 | 0.06 | 92 | 1017.4 |
| 20260901032020 | 72 | 78 | 0.0 | 0.0 | 0.00 | 0.06 | 0.06 | 92 | 1017.4 |
| 20260901031523 | 72 | 78 | 0.0 | 1.0 | 0.00 | 0.06 | 0.06 | 92 | 1017.4 |
| 20260901031018 | 72 | 78 | 0.0 | 1.0 | 0.00 | 0.06 | 0.06 | 92 | 1017.4 |
| 20260901030520 | 72 | 78 | 0.0 | 1.0 | 0.00 | 0.06 | 0.06 | 92 | 1017.5 |
| 20260901030018 | 72 | 78 | 0.0 | 1.0 | 0.00 | 0.06 | 0.06 | 92 | 1017.7 |
| 20260901025518 | 72 | 78 | 0.0 | 1.0 | 0.00 | 0.06 | 0.06 | 92 | 1017.7 |
| 20260901025019 | 72 | 78 | 0.0 | 1.0 | 0.00 | 0.06 | 0.06 | 92 | 1017.7 |
| 20260901024518 | 72 | 78 | 0.0 | 1.0 | 0.00 | 0.06 | 0.06 | 91 | 1017.7 |
| 20260901024019 | 72 | 78 | 0.0 | 2.0 | 0.00 | 0.06 | 0.06 | 91 | 1017.7 |
| 20260901023518 | 72 | 78 | 0.0 | 2.0 | 0.00 | 0.06 | 0.06 | 92 | 1017.8 |
| 20260901023018 | 72 | 95 | 0.0 | 1.0 | 0.00 | 0.06 | 0.06 | 91 | 1017.8 |
| 20260901022518 | 72 | 95 | 0.0 | 1.0 | 0.00 | 0.06 | 0.06 | 91 | 1017.8 |
| 20260901022018 | 72 | 95 | 0.0 | 1.0 | 0.00 | 0.06 | 0.06 | 91 | 1017.8 |
| 20260901021537 | 72 | 95 | 0.0 | 2.0 | 0.00 | 0.06 | 0.06 | 91 | 1017.9 |
| 20260901021018 | 72 | 103 | 0.0 | 2.0 | 0.00 | 0.06 | 0.06 | 91 | 1017.9 |
| 20260901020520 | 72 | 125 | 0.0 | 1.0 | 0.00 | 0.06 | 0.06 | 91 | 1017.9 |
| 20260901020016 | 72 | 223 | 0.0 | 1.0 | 0.00 | 0.06 | 0.06 | 91 | 1017.8 |
| 20260901015515 | 72 | 223 | 0.0 | 1.0 | 0.00 | 0.06 | 0.06 | 91 | 1017.8 |
| 20260901015016 | 72 | 223 | 0.0 | 1.0 | 0.00 | 0.06 | 0.06 | 91 | 1017.8 |
| 20260901014515 | 73 | 224 | 0.0 | 1.0 | 0.00 | 0.06 | 0.06 | 91 | 1017.9 |
| 20260901014015 | 73 | 224 | 0.0 | 2.0 | 0.00 | 0.06 | 0.06 | 90 | 1017.9 |
| 20260901013517 | 73 | 224 | 0.0 | 2.0 | 0.00 | 0.06 | 0.06 | 91 | 1017.8 |
| 20260901013023 | 73 | 219 | 1.0 | 2.0 | 0.00 | 0.06 | 0.06 | 91 | 1017.7 |
| 20260901012515 | 72 | 179 | 0.0 | 1.0 | 0.00 | 0.06 | 0.06 | 90 | 1017.6 |
| 20260901012017 | 73 | 179 | 0.0 | 1.0 | 0.00 | 0.06 | 0.06 | 90 | 1017.6 |
| 20260901011519 | 73 | 220 | 0.0 | 2.0 | 0.00 | 0.06 | 0.06 | 90 | 1017.7 |
| 20260901011014 | 73 | 220 | 0.0 | 2.0 | 0.00 | 0.06 | 0.06 | 90 | 1017.8 |
| 20260901010514 | 73 | 220 | 0.0 | 1.0 | 0.00 | 0.06 | 0.06 | 90 | 1017.8 |
| 20260901010033 | 73 | 220 | 0.0 | 1.0 | 0.00 | 0.06 | 0.06 | 89 | 1017.8 |
| 20260901005514 | 73 | 233 | 0.0 | 1.0 | 0.00 | 0.06 | 0.06 | 89 | 1017.8 |
| 20260901005013 | 73 | 234 | 0.0 | 1.0 | 0.00 | 0.06 | 0.06 | 89 | 1017.7 |
| 20260901004515 | 73 | 234 | 0.0 | 1.0 | 0.00 | 0.06 | 0.06 | 89 | 1017.6 |
| 20260901004013 | 73 | 233 | 0.0 | 2.0 | 0.00 | 0.06 | 0.06 | 89 | 1017.7 |
| 20260901003513 | 73 | 234 | 0.0 | 2.0 | 0.00 | 0.06 | 0.06 | 88 | 1017.5 |
| 20260901003019 | 73 | 223 | 1.0 | 2.0 | 0.00 | 0.06 | 0.06 | 88 | 1017.4 |
| 20260901002512 | 73 | 186 | 0.0 | 2.0 | 0.00 | 0.06 | 0.06 | 87 | 1017.5 |
| 20260901002012 | 73 | 186 | 0.0 | 2.0 | 0.00 | 0.06 | 0.06 | 87 | 1017.6 |
| 20260901001511 | 74 | 181 | 0.0 | 1.0 | 0.00 | 0.06 | 0.06 | 87 | 1017.6 |
| 20260901001010 | 74 | 181 | 0.0 | 0.0 | 0.00 | 0.06 | 0.06 | 86 | 1017.7 |
| 20260901000510 | 74 | 181 | 0.0 | 0.0 | 0.00 | 0.06 | 0.06 | 86 | 1017.6 |
| 20260901000010 | 74 | 182 | 0.0 | 0.0 | 0.00 | 0.06 | 0.06 | 86 | 1017.7 |
| 20260831235515 | 74 | 182 | 0.0 | 1.0 | 0.00 | 0.06 | 0.06 | 86 | 1017.7 |
| 20260831235011 | 74 | 182 | 0.0 | 1.0 | 0.00 | 0.06 | 0.06 | 85 | 1017.7 |
| 20260831234510 | 74 | 182 | 0.0 | 1.0 | 0.00 | 0.06 | 0.06 | 85 | 1017.8 |
| 20260831234010 | 75 | 170 | 0.0 | 1.0 | 0.00 | 0.06 | 0.06 | 85 | 1017.9 |
| 20260831233510 | 75 | 191 | 0.0 | 2.0 | 0.00 | 0.06 | 0.06 | 85 | 1017.9 |
| 20260831233009 | 75 | 217 | 0.0 | 2.0 | 0.00 | 0.06 | 0.06 | 84 | 1018.0 |
| 20260831232513 | 75 | 109 | 0.0 | 2.0 | 0.00 | 0.06 | 0.06 | 84 | 1017.9 |
| 20260831232010 | 75 | 150 | 0.0 | 2.0 | 0.00 | 0.06 | 0.06 | 84 | 1018.1 |
| 20260831231509 | 75 | 202 | 0.0 | 3.0 | 0.00 | 0.06 | 0.06 | 83 | 1018.1 |
| 20260831231008 | 75 | 120 | 0.0 | 3.0 | 0.00 | 0.06 | 0.06 | 83 | 1018.0 |
| 20260831230508 | 76 | 150 | 0.0 | 3.0 | 0.00 | 0.06 | 0.06 | 83 | 1017.9 |
| 20260831230008 | 76 | 147 | 1.0 | 4.0 | 0.00 | 0.06 | 0.06 | 83 | 1018.0 |
| 20260831225506 | 76 | 77 | 1.0 | 4.0 | 0.00 | 0.06 | 0.06 | 83 | 1017.9 |
| 20260831225008 | 76 | 102 | 1.0 | 3.0 | 0.00 | 0.06 | 0.06 | 83 | 1017.9 |
| 20260831224508 | 76 | 67 | 0.0 | 3.0 | 0.00 | 0.06 | 0.06 | 82 | 1018.0 |
| 20260831224006 | 76 | 101 | 1.0 | 3.0 | 0.00 | 0.06 | 0.06 | 82 | 1018.2 |
| 20260831223506 | 76 | 67 | 1.0 | 2.0 | 0.00 | 0.06 | 0.06 | 82 | 1018.1 |
| 20260831223014 | 76 | 123 | 0.0 | 4.0 | 0.00 | 0.06 | 0.06 | 82 | 1018.2 |
| 20260831222506 | 76 | 103 | 2.0 | 4.0 | 0.00 | 0.06 | 0.06 | 81 | 1018.2 |
| 20260831222005 | 76 | 130 | 0.0 | 5.0 | 0.00 | 0.06 | 0.06 | 81 | 1018.2 |
| 20260831221511 | 76 | 148 | 1.0 | 5.0 | 0.00 | 0.06 | 0.06 | 81 | 1018.2 |
| 20260831221004 | 76 | 174 | 1.0 | 6.0 | 0.00 | 0.06 | 0.06 | 80 | 1018.2 |
| 20260831220504 | 77 | 92 | 1.0 | 6.0 | 0.00 | 0.06 | 0.06 | 80 | 1018.3 |
| 20260831220006 | 77 | 164 | 1.0 | 6.0 | 0.00 | 0.06 | 0.06 | 80 | 1018.5 |
| 20260831215506 | 77 | 124 | 2.0 | 6.0 | 0.00 | 0.06 | 0.06 | 79 | 1018.5 |
| 20260831215004 | 77 | 80 | 2.0 | 8.0 | 0.00 | 0.06 | 0.06 | 79 | 1018.4 |
| 20260831214503 | 77 | 129 | 3.0 | 8.0 | 0.00 | 0.06 | 0.06 | 78 | 1018.3 |
| 20260831214003 | 78 | 153 | 1.0 | 7.0 | 0.00 | 0.06 | 0.06 | 78 | 1018.3 |
| 20260831213503 | 78 | 132 | 3.0 | 7.0 | 0.00 | 0.06 | 0.06 | 77 | 1018.3 |
| 20260831213002 | 78 | 128 | 2.0 | 9.0 | 0.00 | 0.06 | 0.06 | 77 | 1018.3 |
| 20260831212502 | 79 | 48 | 4.0 | 9.0 | 0.00 | 0.06 | 0.06 | 76 | 1018.2 |
| 20260831212002 | 79 | 88 | 2.0 | 6.0 | 0.00 | 0.06 | 0.06 | 76 | 1018.2 |
| 20260831211505 | 79 | 139 | 2.0 | 9.0 | 0.00 | 0.06 | 0.06 | 76 | 1018.2 |
| 20260831211002 | 79 | 82 | 1.0 | 11.0 | 0.00 | 0.06 | 0.06 | 75 | 1018.1 |
| 20260831210500 | 79 | 330 | 2.0 | 11.0 | 0.00 | 0.06 | 0.06 | 75 | 1018.1 |
| 20260831210103 | 80 | 140 | 3.0 | 10.0 | 0.00 | 0.06 | 0.06 | 75 | 1018.1 |
| 20260831205603 | 80 | 78 | 4.0 | 8.0 | 0.00 | 0.06 | 0.06 | 75 | 1018.1 |
| 20260831205100 | 80 | 130 | 3.0 | 8.0 | 0.00 | 0.06 | 0.06 | 75 | 1018.1 |
| 20260831204600 | 80 | 87 | 2.0 | 9.0 | 0.00 | 0.06 | 0.06 | 76 | 1018.1 |
| 20260831204100 | 79 | 215 | 3.0 | 9.0 | 0.00 | 0.06 | 0.06 | 75 | 1018.2 |
| 20260831203559 | 79 | 123 | 3.0 | 8.0 | 0.00 | 0.06 | 0.06 | 79 | 1018.2 |
| 20260831203501 | 79 | 128 | 3.0 | 7.0 | 0.00 | 0.06 | 0.06 | 78 | 1018.2 |
| 20260831203059 | 79 | 124 | 3.0 | 7.0 | 0.00 | 0.06 | 0.06 | 78 | 1018.3 |
| 20260831202558 | 78 | 105 | 3.0 | 6.0 | 0.00 | 0.06 | 0.06 | 79 | 1018.2 |
| 20260831202058 | 78 | 92 | 3.0 | 9.0 | 0.00 | 0.06 | 0.06 | 78 | 1018.1 |
| 20260831201604 | 79 | 98 | 3.0 | 9.0 | 0.00 | 0.06 | 0.06 | 78 | 1018.2 |